Weather in Kanelovskaya

Russia / Krasnodar Krai     46°35′22″N   39°11′25″E
temp.,
°C
wind,
m/s
gust,
m/s
humid.,
%
clouds,
%
prec.,
mm/h
press.,
hPa
HPBL,
m
17 june, thu
thu1700:00+21ne718813 0.8 1006446
03:00+20ene51380100 1.4 1007370
06:00+19e51194100 1.1 1008358
09:00+20ese489292 2.8 1010301
12:00+21sse5778100 0.1 1012771
15:00+21ssw787487 0.1 1013933
18:00+22sw577331 0.3 10131053
21:00+18wsw368658 0.3 1015122
18 june, fri
fri1800:00+16sw118996 0.0 101612
03:00+15wsw11910 0.0 101710
06:00+17ne1188100 0.0 101759
09:00+21nne226789 0.0 1017549
12:00+25nne33574 0.0 10171165
15:00+26nne546049 0.0 10161486
18:00+23ne55755 0.1 1016719
21:00+19ne36890 0.1 1017106
19 june, sat
sat1900:00+17nne34880 0.0 101673
03:00+16ene34890 0.0 101663
06:00+18ene37870 0.0 1016196
09:00+24e68700 0.0 1016540
12:00+27e911560 0.0 10151033
15:00+29e814510 0.0 10141492
18:00+27ene714565 0.0 1013756
21:00+24ene8185236 0.0 1013593
20 june, sun
sun2000:00+23ene818445 0.0 1013590
03:00+21ene9204680 0.1 1013579
06:00+18e102055100 0.4 1013441
09:00+18ene9187276 2.2 1013461
12:00+27e812460 0.3 10131296
15:00+30ese7124531 0.3 10121615
18:00+30ne36570 0.0 1011296
21:00+25e615650 0.0 1011421
21 june, mon
mon2100:00+24e615450 0.0 1011458
03:00+22e716410 0.0 1011425
06:00+20e616570 0.0 1011395
09:00+25e714501 0.0 1011583
12:00+29e913430 0.0 10111212
15:00+32ese712400 0.0 10101797
18:00+31e36530 0.0 1010249
21:00+27ese7163540 0.0 1010475